Location: Erdweis
(48.5167°N, 15.3500°E)
Time: 16:45:18
(UTC+00:00)

Cosmos 1634 Rocket - Pass Details

Date: 18 September 2020
Orbit: 961 x 991 km, 82.9° (Epoch: 29 October)

Event Time Altitude Azimuth Distance (km) Brightness Sun altitude
Exits shadow 19:34:23 42° 170° (S) 1,346 4.4 -24.3°
Maximum altitude 19:36:34 75° 96° (E) 1,001 3.8 -24.6°
Drops below altitude 10° 19:42:46 10° 12° (NNE) 2,717 6.6 -25.4°
Sets 19:45:18 0° 11° (N) 3,671 7.3 -25.7°
